Regional Weather Roundup
Issued by NWS

Home | Current Version | Previous Version | Text Only | Print | Product List | Glossary Off
Versions: 1 2 3 4 5 6 7 8 9 10 11 12 13 14 15 16 17 18 19 20 21 22 23 24 25 26 27 28 29 30 31 32 33 34 35 36 37 38 39 40 41 42 43 44 45 46 47 48 49 50

536
ASUS43 KTOP 122059
RWRKS

WEATHER ROUNDUP FOR KANSAS
NATIONAL WEATHER SERVICE GOODLAND KS
300 PM CST TUE DEC 12 2017

NOTE:  "FAIR" INDICATES FEW OR NO CLOUDS BELOW 12,000 FEET WITH NO
SIGNIFICANT WEATHER AND/OR OBSTRUCTIONS TO VISIBILITY.

KSZ001>006-013>018-027>032-041>047-122200-
NORTHWEST KANSAS

CITY           SKY/WX    TMP DP  RH WIND       PRES   REMARKS
GOODLAND       SUNNY     65  17  15 NW8       30.14F
HAYS           SUNNY     59  19  21 W10       30.14F
HILL CITY      SUNNY     61  20  20 VRB7      30.13F
RUSSELL        SUNNY     56  25  30 SW12      30.13F
$$

KSZ061>065-074>080-084>089-122200-
SOUTHWEST KANSAS

CITY           SKY/WX    TMP DP  RH WIND       PRES   REMARKS
DODGE CITY     SUNNY     61  14  16 W13       30.18F
GARDEN CITY    SUNNY     62  12  14 W12       30.17F
GREAT BEND     SUNNY     56  21  25 SW10      30.16F
LIBERAL        SUNNY     65  12  12 SW13      30.20F
$$

KSZ066>073-081>083-090>101-122200-
SOUTHEAST KANSAS

CITY           SKY/WX    TMP DP  RH WIND       PRES   REMARKS
CHANUTE        SUNNY     47  25  42 NW12      30.25F
COFFEYVILLE    SUNNY     46  22  38 W6        30.27F
HUTCHINSON     SUNNY     53  26  35 W13       30.19F
MEDICINE LODGE   N/A     55  23  28 W8        30.21F
NEWTON         SUNNY     49  27  42 W12       30.20F
PARSONS        SUNNY     46  23  40 NW5       30.27F
WICHITA INTL   SUNNY     53  29  39 SW12      30.22F
WICHITA JABRA  SUNNY     49  29  46 SW8       30.21F
WINFIELD       SUNNY     49  30  48 W10       30.26F
$$

KSZ007>012-019>026-033>040-048>060-102>105-122200-
NORTHEAST KANSAS

CITY           SKY/WX    TMP DP  RH WIND       PRES   REMARKS
CONCORDIA      SUNNY     48  26  42 W8        30.14F
EMPORIA        SUNNY     47  27  45 W8        30.20F
LAWRENCE       SUNNY     44  24  45 W8        30.20F
MANHATTAN      SUNNY     49  29  46 SW10      30.17F
OLATHE IND     SUNNY     40  21  46 W8        30.20F
OLATHE EXE     SUNNY     38  20  48 W9        30.19F
SALINA         SUNNY     54  26  34 SW9       30.17F
TOPEKA BILLARD PTSUNNY   44  26  49 W9        30.19F
TOPEKA FORBES  MOSUNNY   45  27  49 NW12      30.19F
$$




USA.gov is the U.S. government's official web portal to all federal, state and local government web resources and services.